Regional Weather Roundup
Issued by NWS Goodland, KS

Home | Current Version | Previous Version | Text Only | Print | Product List | Glossary On
Versions: 1 2 3 4 5 6 7 8 9 10 11 12 13 14 15 16 17 18 19 20 21 22 23 24 25 26 27 28 29 30 31 32 33 34 35 36 37 38 39 40 41 42 43 44 45 46 47 48 49 50
000
ASUS43 KGLD 281508
RWRGLD

GOODLAND FORECAST AREA HOURLY WEATHER ROUNDUP
NATIONAL WEATHER SERVICE GOODLAND KS
800 AM MST FRI NOV 28 2014

...OFFICIAL OBSERVATIONS...

CITY           SKY/WX    TMP DP  RH WIND       PRES   REMARKS
GOODLAND KS    MOSUNNY   49  20  31 SW8       29.90F
HILL CITY KS   SUNNY     40  26  57 SW5       29.88F
IMPERIAL NEB   MOSUNNY   37  24  59 W10       29.86F
MCCOOK NEB     SUNNY     33  24  69 W7        29.87F
AKRON CO       CLOUDY    49  20  31 SW17      29.91S
BURLINGTON CO  PTSUNNY   44  20  38 W12       29.92F
LIMON CO       CLOUDY    35  21  56 N7        29.98F
$$

...UNOFFICIAL OBSERVATIONS...

CITY           SKY/WX    TMP DP  RH WIND       PRES   REMARKS
COLBY KS       SUNNY     45  28  53 S10       29.90F
NORTON KS      SUNNY     39  23  52 SW7       29.85F
SHARON SPRINGS   N/A     43  24  46 SW9         N/A
TRIBUNE KS     PTSUNNY   41  28  60 SW5       29.95F
TRENTON NEB      N/A     40  32  73 SW8         N/A
$$



USA.gov is the U.S. government's official web portal to all federal, state and local government web resources and services.